Overseas Long Beach — WAAT — position and weather

sailwx.info

Track history (hours):
 
Tides and Currents Weather Stations Pressure Air Temp Water Temp Dewpoint Dewpoint Depression Visibility Wind Speed Wind Dir Waves Ship Positions

Overseas Long Beach

Owner: ASC Leasing II, Inc., Philadelphia, PA. More information available from US FCC via Universal Licensing System and Coast Guard Vessel Documentation Center.

Last reported at 2014-Nov-26 05:00 UTC. Time now 2014-Nov-28 12:11 UTC.
Position N 27°00' W 087°06'.

Length 181 m; draft 7.9 m.

Type: Tanker. MMSI: 367703000.

Wind from 340 at 42 knots

Barometer 1017.0 mb
Air temperature 16.1 ° C
Visibility: greater than 2.2 NM
Dewpoint 15.0 ° C

Date/timePositionNaut miles runAvg speedWind from/ knotsBaromVisibWave heightAir tempDewpointWater temp
2014-Nov-26 05:00N 27°00' W 087°06'39211.9 340 / 421017.0 2.2 16.115.0
2014-Nov-24 20:07N 25°05' W 080°09'1313.5
2014-Nov-24 19:10N 25°17' W 080°03'2012.2
2014-Nov-24 17:32N 25°36' W 080°00'1211.8
2014-Nov-24 16:33N 25°48' W 080°00'1212.0
2014-Nov-24 15:33N 25°60' W 079°60'1211.6
2014-Nov-24 14:33N 26°12' W 079°58'1111.1
2014-Nov-24 13:33N 26°23' W 079°58'1110.6
2014-Nov-24 12:33N 26°33' W 079°58'1010.4
2014-Nov-24 11:33N 26°44' W 079°57'1111.1
2014-Nov-24 10:33N 26°55' W 079°57'1010.2
2014-Nov-24 09:33N 27°05' W 079°57'  
2014-Nov-20 21:32N 26°56' W 079°42'2516.9
2014-Nov-20 20:04N 26°31' W 079°42'916.6
2014-Nov-20 19:33N 26°22' W 079°42'1616.1
2014-Nov-20 18:33N 26°07' W 079°45'1616.4
2014-Nov-20 17:33N 25°51' W 079°50'2016.5
2014-Nov-20 16:22N 25°32' W 079°56'16413.3
2014-Nov-20 04:00N 24°06' W 082°30'15414.0 030 / 321019.010.8 21.119.0
2014-Nov-19 17:00N 25°18' W 085°00'   030 / 261025.510.8 17.813.0
Track history (hours):
 
Tides and Currents Weather Stations Pressure Air Temp Water Temp Dewpoint Dewpoint Depression Visibility Wind Speed Wind Dir Waves Ship Positions

Overseas Long Beach

Owner: ASC Leasing II, Inc., Philadelphia, PA. More information available from US FCC via Universal Licensing System and Coast Guard Vessel Documentation Center.

Last reported at 2014-Nov-26 05:00 UTC. Time now 2014-Nov-28 12:11 UTC.
Position N 27°00' W 087°06'.

Length 181 m; draft 7.9 m.

Type: Tanker. MMSI: 367703000.

Wind from 340 at 42 knots

Barometer 1017.0 mb
Air temperature 16.1 ° C
Visibility: greater than 2.2 NM
Dewpoint 15.0 ° C

Date/timePositionNaut miles runAvg speedWind from/ knotsBaromVisibWave heightAir tempDewpointWater temp
2014-Nov-26 05:00N 27°00' W 087°06'39211.9 340 / 421017.0 2.2 16.115.0
2014-Nov-24 20:07N 25°05' W 080°09'1313.5
2014-Nov-24 19:10N 25°17' W 080°03'2012.2
2014-Nov-24 17:32N 25°36' W 080°00'1211.8
2014-Nov-24 16:33N 25°48' W 080°00'1212.0
2014-Nov-24 15:33N 25°60' W 079°60'1211.6
2014-Nov-24 14:33N 26°12' W 079°58'1111.1
2014-Nov-24 13:33N 26°23' W 079°58'1110.6
2014-Nov-24 12:33N 26°33' W 079°58'1010.4
2014-Nov-24 11:33N 26°44' W 079°57'1111.1
2014-Nov-24 10:33N 26°55' W 079°57'1010.2
2014-Nov-24 09:33N 27°05' W 079°57'  
2014-Nov-20 21:32N 26°56' W 079°42'2516.9
2014-Nov-20 20:04N 26°31' W 079°42'916.6
2014-Nov-20 19:33N 26°22' W 079°42'1616.1
2014-Nov-20 18:33N 26°07' W 079°45'1616.4
2014-Nov-20 17:33N 25°51' W 079°50'2016.5
2014-Nov-20 16:22N 25°32' W 079°56'16413.3
2014-Nov-20 04:00N 24°06' W 082°30'15414.0 030 / 321019.010.8 21.119.0
2014-Nov-19 17:00N 25°18' W 085°00'   030 / 261025.510.8 17.813.0

Dump ship's entire track history